Board Camp, AR

3:19 PM CST on February 11, 2016 (GMT -0600)
Mena

Weather History for KMEZ - March, 2013

Change the Weather History Date:

Saturday, March 30, 2013

  Actual Average (KDEQ) Record (KDEQ)
Temperature  
Mean Temperature 64 °F 56 °F  
Max Temperature 73 °F 70 °F 93 °F (1946)
Min Temperature 55 °F 43 °F 27 °F (2003)
Degree Days  
Heating Degree Days 1 9  
Month to date heating degree days 367  
Since 1 July heating degree days 2858  
Cooling Degree Days 0 1  
Month to date cooling degree days 2  
Year to date cooling degree days 4  
Growing Degree Days 14 (Base 50)    
Moisture  
Dew Point 60 °F    
Average Humidity 92    
Maximum Humidity 100    
Minimum Humidity 57    
Precipitation  
Precipitation 0.04 in 0.20 in 4.28 in (1945)
Month to date precipitation 4.45  
Year to date precipitation 11.45  
Snow  
Snow 0.00 in - - ()
Month to date snowfall  
Since 1 July snowfall  
Snow Depth -    
Sea Level Pressure  
Sea Level Pressure 30.02 in    
Wind  
Wind Speed 2 mph (SE)    
Max Wind Speed 10 mph    
Max Gust Speed 20 mph    
Visibility 7 miles    
Events Fog , Rain , Thunderstorm    
T = Trace of Precipitation, MM = Missing Value Source: NWS Daily Summary

Daily Weather History Graph

Daily Weather History Graph

Search for Another Location

Airport or City:

Trip Planner

Search our weather history database for the weather conditions in past years. The results will help you decide how hot, cold, wet, or windy it might be!

Date:

Astronomy

Mar. 30, 2013 Rise Set
Actual Time 7:06 AM CDT 7:36 PM CDT
Civil Twilight 6:40 AM CDT 8:01 PM CDT
Nautical Twilight 6:11 AM CDT 8:31 PM CDT
Astronomical Twilight 5:41 AM CDT 9:01 PM CDT
Moon 11:33 PM CDT (3/30) 9:11 AM CDT (3/30)
Length of Visible Light 13h 20m
Length of Day
12h 30m
Waning Gibbous, 86% of the Moon is Illuminated
Mar 30
Waning Gibbous
Apr 2
Last Quarter
Apr 10
New
Apr 18
First Quarter
Apr 25
Full

Hourly Weather History & Observations

Time (CDT) Temp. Dew Point Humidity Pressure Visibility Wind Dir Wind Speed Gust Speed Precip Events Conditions
12:15 AM 57.2 °F 57.2 °F 100% 30.14 in 0.5 mi Calm Calm - N/A Fog Fog
12:35 AM 55.4 °F 55.4 °F 100% 30.13 in 0.5 mi Calm Calm - N/A   Drizzle
12:55 AM 57.2 °F 57.2 °F 100% 30.12 in 0.5 mi Calm Calm - N/A Rain Rain
1:15 AM 57.2 °F 57.2 °F 100% 30.12 in 0.8 mi Calm Calm - N/A Thunderstorm Unknown
1:35 AM 59.0 °F 59.0 °F 100% 30.13 in 0.5 mi Calm Calm - N/A Fog , Thunderstorm Fog
1:55 AM 59.0 °F 59.0 °F 100% 30.13 in 3.0 mi Calm Calm - N/A Rain Rain
2:15 AM 59.0 °F 59.0 °F 100% 30.12 in 5.0 mi Calm Calm - N/A Rain Rain
2:35 AM 59.0 °F 59.0 °F 100% 30.11 in 4.0 mi Calm Calm - N/A Rain Rain
2:55 AM 59.0 °F 59.0 °F 100% 30.10 in 5.0 mi NE 4.6 mph - N/A   Light Drizzle
3:15 AM 59.0 °F 59.0 °F 100% 30.10 in 4.0 mi Calm Calm - N/A   Overcast
3:35 AM 59.0 °F 59.0 °F 100% 30.09 in 7.0 mi Calm Calm - N/A Rain Light Rain
3:55 AM 59.0 °F 59.0 °F 100% 30.09 in 4.0 mi NE 3.5 mph - N/A   Drizzle
4:15 AM 59.0 °F 59.0 °F 100% 30.08 in 7.0 mi SSE 3.5 mph - N/A Thunderstorm Drizzle
4:35 AM 59.0 °F 59.0 °F 100% 30.06 in 3.0 mi East 5.8 mph - N/A   Drizzle
4:55 AM 59.0 °F 59.0 °F 100% 30.06 in 3.0 mi ESE 5.8 mph - N/A   Overcast
5:15 AM 59.0 °F 59.0 °F 100% 30.06 in 5.0 mi East 8.1 mph - N/A   Overcast
5:35 AM 59.0 °F 59.0 °F 100% 30.06 in 5.0 mi East 8.1 mph - N/A Thunderstorm Overcast
6:15 AM 59.0 °F 59.0 °F 100% 30.06 in 7.0 mi East 6.9 mph - N/A Rain Light Rain
6:35 AM 59.0 °F - N/A% 30.06 in 7.0 mi East 3.5 mph - N/A   Light Drizzle
6:55 AM 59.0 °F 59.0 °F 100% 30.06 in 5.0 mi East 4.6 mph - N/A Rain Rain
7:15 AM 57.2 °F - N/A% 30.06 in 3.0 mi ENE 3.5 mph - N/A Rain Rain
7:35 AM 57.2 °F - N/A% 30.06 in 3.0 mi NE 4.6 mph - N/A Rain Rain
8:15 AM 57.2 °F - N/A% 30.07 in 2.0 mi NNE 3.5 mph - N/A   Drizzle
8:35 AM 57.2 °F - N/A% 30.08 in 3.0 mi NNE 4.6 mph - N/A   Light Drizzle
8:55 AM 57.2 °F - N/A% 30.09 in 5.0 mi Calm Calm - N/A Rain Light Rain
9:15 AM 57.2 °F - N/A% 30.08 in 5.0 mi Calm Calm - N/A Rain Rain
9:35 AM 57.2 °F - N/A% 30.08 in 10.0 mi SE 3.5 mph - N/A   Light Drizzle
9:55 AM 57.2 °F 57.2 °F 100% 30.08 in 10.0 mi Calm Calm - N/A Rain Light Rain
10:15 AM 59.0 °F 59.0 °F 100% 30.06 in 5.0 mi Calm Calm - N/A Rain Light Rain
10:35 AM 59.0 °F - N/A% 30.06 in 7.0 mi East 4.6 mph - N/A Rain Rain
11:15 AM 59.0 °F 59.0 °F 100% 30.06 in 10.0 mi East 4.6 mph - N/A   Light Drizzle
11:35 AM 60.8 °F 60.8 °F 100% 30.04 in 10.0 mi ENE 3.5 mph - N/A Thunderstorm Overcast
11:55 AM 60.8 °F 60.8 °F 100% 30.04 in 10.0 mi ENE 3.5 mph - N/A   Overcast
12:15 PM 60.8 °F 60.8 °F 100% 30.04 in 10.0 mi Calm Calm - N/A Rain Light Rain
12:35 PM 60.8 °F 60.8 °F 100% 30.06 in 10.0 mi NW 5.8 mph - N/A Rain Rain
12:55 PM 59.0 °F 59.0 °F 100% 30.07 in 4.0 mi Calm Calm - 0.01 in Rain Rain
1:15 PM 59.0 °F - N/A% 30.03 in 10.0 mi ESE 3.5 mph - N/A Rain , Thunderstorm Thunderstorms and Rain
1:35 PM 59.0 °F - N/A% 30.03 in 10.0 mi East 3.5 mph - N/A Thunderstorm Overcast
1:55 PM 60.8 °F 60.8 °F 100% 30.03 in 10.0 mi Calm Calm - N/A   Overcast
2:15 PM 60.8 °F 60.8 °F 100% 30.01 in 10.0 mi WSW 3.5 mph - N/A   Overcast
2:35 PM 64.4 °F 64.4 °F 100% 30.00 in 10.0 mi SW 6.9 mph - N/A   Overcast
2:55 PM 64.4 °F 62.6 °F 94% 29.98 in 10.0 mi WSW 3.5 mph - N/A   Mostly Cloudy
3:15 PM 66.2 °F 60.8 °F 83% 29.97 in 10.0 mi WSW 5.8 mph - N/A   Scattered Clouds
3:35 PM 68.0 °F 59.0 °F 73% 29.96 in 10.0 mi Calm Calm - N/A   Clear
3:55 PM 69.8 °F 57.2 °F 64% 29.96 in 10.0 mi West 5.8 mph - N/A   Clear
4:15 PM 71.6 °F 55.4 °F 57% 29.95 in 10.0 mi WSW 8.1 mph - N/A   Clear
4:35 PM 71.6 °F 55.4 °F 57% 29.94 in 10.0 mi SSW 6.9 mph 19.6 mph N/A   Scattered Clouds
4:55 PM 73.4 °F 57.2 °F 57% 29.93 in 10.0 mi WSW 10.4 mph - N/A   Overcast
5:15 PM 69.8 °F 57.2 °F 64% 29.93 in 10.0 mi South 6.9 mph - N/A   Overcast
5:35 PM 69.8 °F 59.0 °F 68% 29.93 in 10.0 mi SSW 4.6 mph - N/A   Overcast
5:55 PM 69.8 °F 59.0 °F 68% 29.93 in 10.0 mi SSW 5.8 mph - N/A   Overcast
6:15 PM 68.0 °F 60.8 °F 78% 29.93 in 10.0 mi SSW 4.6 mph - N/A   Overcast
6:35 PM 68.0 °F 60.8 °F 78% 29.94 in 10.0 mi SW 4.6 mph - 0.02 in   Overcast
6:55 PM 68.0 °F 60.8 °F 78% 29.94 in 10.0 mi South 5.8 mph - 0.02 in   Overcast
7:15 PM 66.2 °F 60.8 °F 83% 29.94 in 10.0 mi SSW 5.8 mph - N/A   Overcast
7:35 PM 66.2 °F 60.8 °F 83% 29.94 in 10.0 mi Calm Calm - N/A   Overcast
7:55 PM 64.4 °F 60.8 °F 88% 29.94 in 10.0 mi Calm Calm - N/A   Overcast
8:15 PM 64.4 °F 60.8 °F 88% 29.94 in 10.0 mi Calm Calm - N/A   Overcast
8:35 PM 64.4 °F 60.8 °F 88% 29.95 in 10.0 mi Calm Calm - N/A   Overcast
8:55 PM 64.4 °F 60.8 °F 88% 29.95 in 10.0 mi Calm Calm - N/A   Overcast
9:15 PM 64.4 °F 62.6 °F 94% 29.95 in 10.0 mi Calm Calm - N/A   Overcast
9:35 PM 64.4 °F 62.6 °F 94% 29.96 in 10.0 mi Calm Calm - 0.01 in   Overcast
9:55 PM 64.4 °F 62.6 °F 94% 29.95 in 10.0 mi Calm Calm - 0.01 in   Overcast
10:15 PM 64.4 °F 62.6 °F 94% 29.96 in 10.0 mi Calm Calm - N/A   Overcast
10:35 PM 64.4 °F 64.4 °F 100% 29.96 in 10.0 mi Calm Calm - N/A   Overcast
10:55 PM 62.6 °F 62.6 °F 100% 29.95 in 10.0 mi NE 5.8 mph - N/A   Mostly Cloudy
11:15 PM 62.6 °F 62.6 °F 100% 29.95 in 7.0 mi Calm Calm - N/A   Overcast
11:35 PM 64.4 °F 64.4 °F 100% 29.95 in 10.0 mi Calm Calm - N/A   Overcast
11:55 PM 64.4 °F 64.4 °F 100% 29.95 in 10.0 mi Calm Calm - N/A   Overcast